Location: Columbia
(38.9520°N, 92.3340°W)
Time: 12:45:27
(UTC-05:00)

CZ-2C R/B - Visible Passes

Search period start: 28 July 2015 00:00
Search period end: 07 August 2015 00:00
Orbit: 703 x 910 km, 98.1° (Epoch: 28 July)

Date Brightness Start Highest point End Pass type
(mag) Time Alt. Az. Time Alt. Az. Time Alt. Az.
28 Jul 4.3 02:16:06 32° E 02:16:33 33° ENE 02:20:57 10° N visible
28 Jul 4.2 03:57:11 25° W 03:57:11 25° W 04:00:35 10° NW visible
29 Jul 5.0 01:51:14 19° E 01:52:00 20° ENE 01:55:33 10° NNE visible
29 Jul 3.5 03:32:19 42° WNW 03:32:19 42° WNW 03:36:23 10° NNW visible
30 Jul 5.5 01:26:22 10° ENE 01:27:33 11° ENE 01:29:13 10° NE visible
30 Jul 3.0 03:07:27 71° NW 03:07:27 71° NW 03:11:51 10° NNW visible
31 Jul 3.4 02:42:35 58° ENE 02:42:35 58° ENE 02:47:05 10° N visible
31 Jul 4.9 04:23:39 13° WNW 04:23:39 13° WNW 04:25:00 10° WNW visible
01 Aug 4.2 02:17:42 34° ENE 02:17:42 34° ENE 02:22:03 10° N visible
01 Aug 4.4 03:58:47 22° WNW 03:58:47 22° WNW 04:01:34 10° NW visible
02 Aug 4.9 01:52:50 20° ENE 01:53:08 20° ENE 01:56:41 10° NNE visible
02 Aug 3.7 03:33:55 37° WNW 03:33:55 37° WNW 03:37:25 10° NNW visible
03 Aug 5.5 01:27:58 11° ENE 01:28:40 12° ENE 01:30:26 10° NE visible
03 Aug 3.3 03:09:02 57° NW 03:09:02 57° NW 03:12:55 10° NNW visible
04 Aug 3.5 02:44:10 54° NNE 02:44:10 54° NNE 02:48:09 10° N visible
04 Aug 5.0 04:25:15 11° WNW 04:25:15 11° WNW 04:25:48 10° WNW visible
05 Aug 4.2 02:19:18 34° ENE 02:19:18 34° ENE 02:23:09 10° N visible
05 Aug 4.5 04:00:22 19° WNW 04:00:22 19° WNW 04:02:33 10° NW visible
06 Aug 4.9 01:54:25 21° ENE 01:54:25 21° ENE 01:57:48 10° NNE visible
06 Aug 4.0 03:35:30 31° WNW 03:35:30 31° WNW 03:38:27 10° NNW visible
